Torna al catalogo

STARLINK-33696

AttivoComunicazioniVLEO
NORAD 63463·PAYLOAD·🇺🇸 United States

Lanciato Apr 6, 2025 da Cape Canaveral Space Force Station

Loading…

Prossimi Passaggi (prossime 24 ore)

TLE

AggiornatoSource: CelesTrak SupGP

Epoca: Sep 15, 2026, 03:29 UTC

1 63463C 25070D   26258.14562500 -.00027064  00000+0 -98028-3 0  2580
2 63463  43.0027 269.8535 0001407 266.2711  10.7771 15.27590934    14

Traccia STARLINK-33696 in tempo reale con AllMySat

Download on the App Store